| time (UTC) | temp C | wind direction | speed KPH | gust KPH | rain 1hr cm | rain 24hr cm | rain mn cm | humidity % | barometer mb |
| 20260506151007 | 12 | 227 | 6.4 | 17.7 | 0.00 | 0.10 | 0.00 | 43 | 1029.1 |
| 20260506150516 | 12 | 171 | 8.0 | 17.7 | 0.00 | 0.10 | 0.00 | 43 | 1029.3 |
| 20260506150033 | 12 | 206 | 6.4 | 12.9 | 0.00 | 0.10 | 0.00 | 44 | 1029.2 |
| 20260506145532 | 12 | 209 | 4.8 | 14.5 | 0.00 | 0.10 | 0.00 | 43 | 1029.4 |
| 20260506145039 | 12 | 265 | 4.8 | 14.5 | 0.00 | 0.10 | 0.00 | 44 | 1029.4 |
| 20260506144552 | 12 | 269 | 4.8 | 12.9 | 0.00 | 0.10 | 0.00 | 44 | 1029.6 |
| 20260506144054 | 12 | 241 | 3.2 | 16.1 | 0.00 | 0.10 | 0.00 | 46 | 1029.5 |
| 20260506143505 | 12 | 178 | 9.7 | 16.1 | 0.00 | 0.10 | 0.00 | 44 | 1029.6 |
| 20260506143034 | 12 | 201 | 1.6 | 6.4 | 0.00 | 0.10 | 0.00 | 48 | 1029.7 |
| 20260506142519 | 11 | 212 | 1.6 | 6.4 | 0.00 | 0.10 | 0.00 | 50 | 1029.6 |
| 20260506142021 | 11 | 210 | 3.2 | 8.0 | 0.00 | 0.10 | 0.00 | 51 | 1029.7 |
| 20260506141538 | 11 | 165 | 1.6 | 9.7 | 0.00 | 0.10 | 0.00 | 57 | 1029.8 |
| 20260506141038 | 10 | 151 | 1.6 | 9.7 | 0.00 | 0.10 | 0.00 | 56 | 1029.6 |
| 20260506140546 | 10 | 180 | 3.2 | 8.0 | 0.00 | 0.10 | 0.00 | 58 | 1029.7 |
| 20260506140105 | 10 | 192 | 4.8 | 8.0 | 0.00 | 0.10 | 0.00 | 61 | 1029.6 |
| 20260506135504 | 9 | 160 | 3.2 | 8.0 | 0.00 | 0.10 | 0.00 | 63 | 1029.6 |
| 20260506135007 | 8 | 168 | 3.2 | 14.5 | 0.00 | 0.10 | 0.00 | 64 | 1029.6 |
| 20260506134528 | 8 | 220 | 6.4 | 14.5 | 0.00 | 0.10 | 0.00 | 64 | 1029.6 |
| 20260506134030 | 8 | 153 | 6.4 | 14.5 | 0.00 | 0.10 | 0.00 | 66 | 1029.5 |
| 20260506133536 | 8 | 169 | 3.2 | 9.7 | 0.00 | 0.10 | 0.00 | 68 | 1029.6 |
| 20260506133047 | 7 | 201 | 3.2 | 8.0 | 0.00 | 0.10 | 0.00 | 71 | 1029.5 |
| 20260506132553 | 7 | 173 | 3.2 | 9.7 | 0.00 | 0.10 | 0.00 | 73 | 1029.5 |
| 20260506132100 | 6 | 164 | 3.2 | 9.7 | 0.00 | 0.10 | 0.00 | 75 | 1029.4 |
| 20260506131538 | 5 | 204 | 4.8 | 9.7 | 0.00 | 0.10 | 0.00 | 77 | 1029.3 |
| 20260506131044 | 5 | 210 | 0.0 | 6.4 | 0.00 | 0.10 | 0.00 | 81 | 1029.3 |
| 20260506130552 | 4 | 207 | 1.6 | 4.8 | 0.00 | 0.10 | 0.00 | 82 | 1029.2 |
| 20260506130002 | 4 | 205 | 0.0 | 3.2 | 0.00 | 0.10 | 0.00 | 83 | 1029.2 |
| 20260506125505 | 4 | 205 | 0.0 | 4.8 | 0.00 | 0.10 | 0.00 | 83 | 1029.2 |
| 20260506125019 | 4 | 205 | 0.0 | 4.8 | 0.00 | 0.10 | 0.00 | 84 | 1029.2 |
| 20260506124551 | 3 | 205 | 0.0 | 3.2 | 0.00 | 0.10 | 0.00 | 84 | 1029.1 |
| 20260506124003 | 3 | 205 | 1.6 | 3.2 | 0.00 | 0.10 | 0.00 | 83 | 1029.1 |
| 20260506123506 | 4 | 205 | 0.0 | 3.2 | 0.00 | 0.10 | 0.00 | 82 | 1029.0 |
| 20260506123020 | 4 | 205 | 1.6 | 3.2 | 0.00 | 0.10 | 0.00 | 83 | 1028.9 |
| 20260506122524 | 4 | 178 | 0.0 | 4.8 | 0.00 | 0.10 | 0.00 | 83 | 1028.8 |
| 20260506122033 | 4 | 181 | 0.0 | 4.8 | 0.00 | 0.10 | 0.00 | 84 | 1028.6 |
| 20260506121507 | 3 | 189 | 1.6 | 4.8 | 0.00 | 0.10 | 0.00 | 85 | 1028.4 |
| 20260506121015 | 3 | 186 | 1.6 | 4.8 | 0.00 | 0.10 | 0.00 | 85 | 1028.3 |
| 20260506120518 | 3 | 188 | 0.0 | 3.2 | 0.00 | 0.10 | 0.00 | 86 | 1028.2 |
| 20260506120033 | 3 | 188 | 0.0 | 4.8 | 0.00 | 0.10 | 0.00 | 87 | 1028.2 |
| 20260506115536 | 3 | 189 | 1.6 | 4.8 | 0.00 | 0.10 | 0.00 | 87 | 1028.2 |
| 20260506115046 | 3 | 189 | 0.0 | 4.8 | 0.00 | 0.10 | 0.00 | 87 | 1028.2 |
| 20260506114555 | 3 | 189 | 0.0 | 4.8 | 0.00 | 0.10 | 0.00 | 86 | 1028.1 |
| 20260506114003 | 3 | 233 | 0.0 | 3.2 | 0.00 | 0.10 | 0.00 | 85 | 1028.0 |
| 20260506113503 | 3 | 233 | 0.0 | 1.6 | 0.00 | 0.10 | 0.00 | 85 | 1027.9 |
| 20260506113014 | 3 | 276 | 0.0 | 1.6 | 0.00 | 0.10 | 0.00 | 84 | 1027.9 |
| 20260506112522 | 3 | 276 | 0.0 | 1.6 | 0.00 | 0.10 | 0.00 | 83 | 1027.6 |
| 20260506112022 | 3 | 276 | 0.0 | 1.6 | 0.00 | 0.10 | 0.00 | 83 | 1027.6 |
| 20260506111539 | 3 | 276 | 0.0 | 1.6 | 0.00 | 0.10 | 0.00 | 83 | 1027.5 |
| 20260506111039 | 3 | 276 | 0.0 | 0.0 | 0.00 | 0.10 | 0.00 | 82 | 1027.5 |
| 20260506110548 | 4 | 276 | 0.0 | 0.0 | 0.00 | 0.10 | 0.00 | 82 | 1027.4 |
| 20260506110104 | 4 | 276 | 0.0 | 3.2 | 0.00 | 0.10 | 0.00 | 82 | 1027.2 |
| 20260506105505 | 4 | 276 | 0.0 | 3.2 | 0.00 | 0.10 | 0.00 | 82 | 1027.1 |
| 20260506105010 | 4 | 276 | 0.0 | 3.2 | 0.00 | 0.10 | 0.00 | 82 | 1026.9 |
| 20260506104520 | 4 | 276 | 0.0 | 1.6 | 0.00 | 0.10 | 0.00 | 82 | 1026.9 |
| 20260506104025 | 4 | 276 | 0.0 | 6.4 | 0.00 | 0.10 | 0.00 | 81 | 1026.8 |
| 20260506103529 | 5 | 276 | 1.6 | 6.4 | 0.00 | 0.10 | 0.00 | 81 | 1026.8 |
| 20260506103049 | 5 | 189 | 0.0 | 4.8 | 0.00 | 0.10 | 0.00 | 80 | 1026.7 |
| 20260506102549 | 5 | 189 | 0.0 | 6.4 | 0.00 | 0.10 | 0.00 | 80 | 1026.7 |
| 20260506102057 | 5 | 201 | 1.6 | 6.4 | 0.00 | 0.10 | 0.00 | 81 | 1026.7 |
| 20260506101522 | 5 | 197 | 1.6 | 6.4 | 0.00 | 0.10 | 0.00 | 80 | 1026.6 |
| 20260506101015 | 5 | 185 | 0.0 | 1.6 | 0.00 | 0.10 | 0.00 | 80 | 1026.5 |
| 20260506100525 | 5 | 185 | 0.0 | 3.2 | 0.00 | 0.10 | 0.00 | 80 | 1026.3 |
| 20260506100049 | 5 | 185 | 0.0 | 3.2 | 0.00 | 0.10 | 0.00 | 79 | 1026.3 |
| 20260506095559 | 5 | 185 | 0.0 | 3.2 | 0.00 | 0.10 | 0.00 | 79 | 1026.3 |
| 20260506095056 | 5 | 185 | 0.0 | 3.2 | 0.00 | 0.10 | 0.00 | 78 | 1026.2 |
| 20260506094515 | 6 | 185 | 0.0 | 0.0 | 0.00 | 0.10 | 0.00 | 78 | 1026.1 |
| 20260506094116 | 6 | 185 | 0.0 | 1.6 | 0.00 | 0.10 | 0.00 | 77 | 1026.0 |
| 20260506093517 | 6 | 186 | 0.0 | 3.2 | 0.00 | 0.10 | 0.00 | 77 | 1026.0 |
| 20260506093033 | 6 | 186 | 0.0 | 1.6 | 0.00 | 0.10 | 0.00 | 78 | 1026.0 |
| 20260506092542 | 6 | 186 | 0.0 | 3.2 | 0.00 | 0.10 | 0.00 | 75 | 1026.0 |
| 20260506092045 | 6 | 185 | 0.0 | 3.2 | 0.00 | 0.10 | 0.00 | 75 | 1026.0 |
| 20260506091555 | 6 | 185 | 0.0 | 0.0 | 0.00 | 0.10 | 0.00 | 75 | 1026.1 |
| 20260506091059 | 7 | 185 | 0.0 | 0.0 | 0.00 | 0.10 | 0.00 | 74 | 1026.1 |
| 20260506090505 | 7 | 185 | 0.0 | 0.0 | 0.00 | 0.10 | 0.00 | 73 | 1026.0 |
| 20260506090023 | 7 | 185 | 0.0 | 1.6 | 0.00 | 0.10 | 0.00 | 72 | 1026.0 |
| 20260506085523 | 7 | 185 | 0.0 | 3.2 | 0.00 | 0.10 | 0.00 | 72 | 1026.0 |
| 20260506085034 | 7 | 186 | 0.0 | 4.8 | 0.00 | 0.10 | 0.00 | 71 | 1026.1 |
| 20260506084544 | 7 | 186 | 0.0 | 4.8 | 0.00 | 0.10 | 0.00 | 72 | 1026.1 |
| 20260506084041 | 8 | 221 | 0.0 | 6.4 | 0.00 | 0.10 | 0.00 | 71 | 1026.1 |
| 20260506083549 | 8 | 279 | 0.0 | 4.8 | 0.00 | 0.10 | 0.00 | 71 | 1026.1 |
| 20260506083100 | 8 | 290 | 1.6 | 4.8 | 0.00 | 0.10 | 0.00 | 70 | 1026.1 |
| 20260506082506 | 8 | 348 | 0.0 | 3.2 | 0.00 | 0.10 | 0.00 | 70 | 1026.1 |
| 20260506082012 | 8 | 349 | 0.0 | 4.8 | 0.00 | 0.10 | 0.00 | 69 | 1026.1 |
| 20260506081525 | 8 | 349 | 1.6 | 4.8 | 0.00 | 0.10 | 0.00 | 70 | 1026.2 |
| 20260506081033 | 8 | 88 | 0.0 | 8.0 | 0.00 | 0.10 | 0.00 | 70 | 1026.1 |
| 20260506080539 | 8 | 65 | 1.6 | 8.0 | 0.00 | 0.10 | 0.00 | 71 | 1026.0 |
| 20260506073529 | 9 | 127 | 0.0 | 4.8 | 0.00 | 0.10 | 0.00 | 71 | 1025.8 |
| 20260506073046 | 9 | 127 | 0.0 | 6.4 | 0.00 | 0.10 | 0.00 | 71 | 1025.6 |
| 20260506072551 | 9 | 127 | 3.2 | 6.4 | 0.00 | 0.10 | 0.00 | 71 | 1025.7 |
| 20260506072100 | 9 | 297 | 1.6 | 9.7 | 0.00 | 0.10 | 0.00 | 73 | 1025.7 |
| 20260506072001 | 9 | 303 | 1.6 | 9.7 | 0.00 | 0.10 | 0.00 | 74 | 1025.7 |
| 20260506071515 | 8 | 343 | 3.2 | 9.7 | 0.00 | 0.10 | 0.00 | 77 | 1025.5 |
| 20260506071018 | 8 | 315 | 0.0 | 0.0 | 0.00 | 0.10 | 0.00 | 78 | 1025.5 |
| 20260506070519 | 8 | 315 | 0.0 | 0.0 | 0.00 | 0.10 | 0.00 | 76 | 1025.5 |
| 20260506062030 | 10 | 315 | 0.0 | 1.6 | 0.00 | 0.10 | 0.00 | 73 | 1025.0 |
| 20260506061505 | 10 | 315 | 0.0 | 3.2 | 0.00 | 0.10 | 0.00 | 72 | 1024.9 |
| 20260506061016 | 10 | 315 | 0.0 | 4.8 | 0.00 | 0.10 | 0.00 | 72 | 1024.9 |
| 20260506060517 | 10 | 315 | 3.2 | 4.8 | 0.00 | 0.10 | 0.00 | 72 | 1024.9 |
| 20260506051021 | 11 | 330 | 0.0 | 3.2 | 0.00 | 0.10 | 0.10 | 67 | 1024.5 |
| 20260506050525 | 11 | 331 | 0.0 | 6.4 | 0.00 | 0.10 | 0.10 | 67 | 1024.3 |
| 20260506045056 | 11 | 330 | 3.2 | 8.0 | 0.00 | 0.10 | 0.10 | 65 | 1024.3 |
| 20260506044510 | 12 | 337 | 1.6 | 9.7 | 0.00 | 0.10 | 0.10 | 64 | 1024.3 |
| 20260506044026 | 12 | 318 | 3.2 | 9.7 | 0.00 | 0.10 | 0.10 | 64 | 1024.3 |
| 20260506043521 | 12 | 329 | 4.8 | 14.5 | 0.00 | 0.10 | 0.10 | 63 | 1024.3 |
| 20260506043034 | 12 | 324 | 6.4 | 14.5 | 0.00 | 0.10 | 0.10 | 63 | 1024.2 |
| 20260506042543 | 12 | 14 | 3.2 | 8.0 | 0.00 | 0.10 | 0.10 | 63 | 1024.2 |
| 20260506042050 | 12 | 324 | 1.6 | 4.8 | 0.00 | 0.10 | 0.10 | 62 | 1024.0 |
| 20260506041531 | 12 | 309 | 0.0 | 9.7 | 0.00 | 0.10 | 0.10 | 62 | 1024.0 |
| 20260506041027 | 12 | 354 | 3.2 | 9.7 | 0.00 | 0.10 | 0.10 | 61 | 1023.7 |
| 20260506040539 | 12 | 21 | 3.2 | 9.7 | 0.00 | 0.10 | 0.10 | 62 | 1023.7 |
| 20260506040049 | 12 | 320 | 3.2 | 12.9 | 0.00 | 0.10 | 0.10 | 62 | 1023.5 |
| 20260506035551 | 12 | 359 | 4.8 | 17.7 | 0.00 | 0.10 | 0.10 | 61 | 1023.5 |
| 20260506035100 | 12 | 322 | 9.7 | 17.7 | 0.00 | 0.10 | 0.10 | 61 | 1023.3 |
| 20260506034512 | 12 | 354 | 8.0 | 17.7 | 0.00 | 0.10 | 0.10 | 61 | 1023.2 |
| 20260506034018 | 12 | 328 | 6.4 | 19.3 | 0.00 | 0.10 | 0.10 | 62 | 1023.0 |
| 20260506033523 | 13 | 347 | 6.4 | 24.1 | 0.00 | 0.10 | 0.10 | 61 | 1022.9 |
| 20260506033110 | 13 | 322 | 11.3 | 24.1 | 0.00 | 0.10 | 0.10 | 60 | 1022.7 |
| 20260506032502 | 13 | 318 | 8.0 | 17.7 | 0.00 | 0.10 | 0.10 | 67 | 1022.6 |
| 20260506032003 | 12 | 285 | 6.4 | 12.9 | 0.00 | 0.10 | 0.10 | 67 | 1022.3 |
| 20260506031538 | 12 | 303 | 6.4 | 12.9 | 0.00 | 0.10 | 0.10 | 68 | 1022.1 |
| 20260506031041 | 12 | 144 | 1.6 | 3.2 | 0.00 | 0.10 | 0.10 | 70 | 1021.9 |
| 20260506030552 | 12 | 141 | 0.0 | 0.0 | 0.00 | 0.10 | 0.10 | 67 | 1021.7 |
| 20260506030008 | 12 | 141 | 0.0 | 0.0 | 0.00 | 0.10 | 0.10 | 66 | 1021.6 |
| 20260506025515 | 12 | 141 | 0.0 | 1.6 | 0.00 | 0.10 | 0.10 | 65 | 1021.5 |
| 20260506025020 | 13 | 141 | 0.0 | 1.6 | 0.00 | 0.10 | 0.10 | 64 | 1021.3 |
| 20260506024534 | 13 | 141 | 0.0 | 0.0 | 0.00 | 0.10 | 0.10 | 63 | 1021.2 |
| 20260506024038 | 13 | 141 | 0.0 | 0.0 | 0.00 | 0.10 | 0.10 | 64 | 1021.0 |
| 20260506023547 | 13 | 141 | 0.0 | 1.6 | 0.00 | 0.10 | 0.10 | 62 | 1021.0 |
| 20260506023101 | 13 | 141 | 0.0 | 1.6 | 0.00 | 0.10 | 0.10 | 62 | 1021.0 |
| 20260506022505 | 13 | 141 | 0.0 | 1.6 | 0.00 | 0.10 | 0.10 | 61 | 1021.1 |
| 20260506022015 | 13 | 141 | 0.0 | 4.8 | 0.00 | 0.10 | 0.10 | 60 | 1020.8 |
| 20260506021556 | 13 | 141 | 0.0 | 6.4 | 0.00 | 0.10 | 0.10 | 60 | 1020.8 |
| 20260506021010 | 14 | 139 | 3.2 | 6.4 | 0.00 | 0.10 | 0.10 | 60 | 1020.8 |
| 20260506020513 | 14 | 162 | 1.6 | 3.2 | 0.00 | 0.10 | 0.10 | 58 | 1020.4 |
| 20260506020031 | 15 | 299 | 0.0 | 1.6 | 0.00 | 0.10 | 0.10 | 57 | 1020.2 |
| 20260506015535 | 15 | 299 | 0.0 | 3.2 | 0.00 | 0.10 | 0.10 | 56 | 1020.0 |
| 20260506015046 | 15 | 299 | 0.0 | 3.2 | 0.00 | 0.10 | 0.10 | 56 | 1020.0 |
| 20260506014559 | 15 | 299 | 0.0 | 6.4 | 0.00 | 0.10 | 0.10 | 56 | 1019.8 |
| 20260506014007 | 15 | 298 | 0.0 | 6.4 | 0.00 | 0.10 | 0.10 | 54 | 1019.9 |
| 20260506013517 | 15 | 24 | 3.2 | 4.8 | 0.00 | 0.10 | 0.10 | 54 | 1019.7 |
| 20260506013038 | 15 | 22 | 1.6 | 6.4 | 0.00 | 0.10 | 0.10 | 54 | 1019.9 |
| 20260506012539 | 15 | 4 | 1.6 | 6.4 | 0.00 | 0.10 | 0.10 | 53 | 1019.7 |
| 20260506012049 | 15 | 23 | 0.0 | 6.4 | 0.00 | 0.10 | 0.10 | 54 | 1019.8 |
| 20260506011501 | 16 | 75 | 1.6 | 8.0 | 0.00 | 0.10 | 0.10 | 53 | 1019.7 |
| 20260506011015 | 16 | 315 | 3.2 | 8.0 | 0.00 | 0.10 | 0.10 | 52 | 1019.7 |
| 20260506010521 | 16 | 314 | 1.6 | 6.4 | 0.00 | 0.10 | 0.10 | 52 | 1019.6 |
| 20260506010035 | 16 | 348 | 0.0 | 3.2 | 0.00 | 0.10 | 0.10 | 51 | 1019.7 |
| 20260506005542 | 16 | 354 | 0.0 | 4.8 | 0.00 | 0.10 | 0.10 | 52 | 1019.6 |
| 20260506005049 | 16 | 359 | 0.0 | 6.4 | 0.00 | 0.10 | 0.10 | 53 | 1019.3 |
| 20260506004511 | 16 | 346 | 3.2 | 8.0 | 0.00 | 0.10 | 0.10 | 50 | 1019.2 |
| 20260506004016 | 16 | 310 | 3.2 | 8.0 | 0.00 | 0.10 | 0.10 | 48 | 1019.2 |
| 20260506003519 | 16 | 287 | 3.2 | 11.3 | 0.00 | 0.10 | 0.10 | 49 | 1019.1 |
| 20260506003034 | 16 | 268 | 4.8 | 11.3 | 0.00 | 0.10 | 0.10 | 48 | 1019.3 |
| 20260506002540 | 16 | 283 | 3.2 | 9.7 | 0.00 | 0.10 | 0.10 | 49 | 1019.2 |
| 20260506002045 | 16 | 289 | 4.8 | 9.7 | 0.00 | 0.10 | 0.10 | 48 | 1019.1 |
| 20260506001609 | 17 | 295 | 3.2 | 8.0 | 0.00 | 0.10 | 0.10 | 47 | 1019.0 |
| 20260506001005 | 17 | 350 | 4.8 | 8.0 | 0.00 | 0.10 | 0.10 | 47 | 1018.9 |
| 20260506000514 | 17 | 329 | 1.6 | 12.9 | 0.00 | 0.10 | 0.10 | 46 | 1019.0 |
| 20260506000050 | 17 | 295 | 1.6 | 14.5 | 0.00 | 0.10 | 0.10 | 49 | 1018.9 |
| 20260505235555 | 17 | 328 | 4.8 | 14.5 | 0.00 | 0.10 | 0.10 | 48 | 1018.8 |
| 20260505235059 | 16 | 332 | 4.8 | 9.7 | 0.00 | 0.10 | 0.10 | 48 | 1018.9 |
| 20260505234547 | 16 | 21 | 3.2 | 9.7 | 0.00 | 0.10 | 0.10 | 49 | 1019.1 |
| 20260505234054 | 16 | 325 | 1.6 | 8.0 | 0.00 | 0.10 | 0.10 | 50 | 1019.1 |
| 20260505233558 | 16 | 326 | 1.6 | 12.9 | 0.00 | 0.10 | 0.10 | 52 | 1019.2 |
| 20260505233500 | 16 | 344 | 1.6 | 12.9 | 0.00 | 0.10 | 0.10 | 51 | 1019.2 |
| 20260505233013 | 16 | 315 | 6.4 | 12.9 | 0.00 | 0.10 | 0.10 | 48 | 1019.1 |
| 20260505232519 | 16 | 275 | 4.8 | 11.3 | 0.00 | 0.10 | 0.10 | 50 | 1019.3 |
| 20260505232029 | 16 | 272 | 3.2 | 16.1 | 0.00 | 0.10 | 0.10 | 54 | 1019.3 |
| 20260505231503 | 16 | 271 | 6.4 | 16.1 | 0.00 | 0.10 | 0.10 | 51 | 1019.3 |
| 20260505231012 | 15 | 324 | 6.4 | 16.1 | 0.00 | 0.10 | 0.10 | 54 | 1019.2 |
| 20260505230516 | 15 | 304 | 6.4 | 16.1 | 0.00 | 0.10 | 0.10 | 53 | 1019.2 |
| 20260505230033 | 15 | 278 | 3.2 | 16.1 | 0.00 | 0.10 | 0.10 | 54 | 1019.3 |
| 20260505225537 | 15 | 278 | 9.7 | 14.5 | 0.00 | 0.10 | 0.10 | 54 | 1019.3 |
| 20260505225043 | 15 | 292 | 6.4 | 20.9 | 0.00 | 0.10 | 0.10 | 53 | 1019.1 |
| 20260505224534 | 16 | 290 | 8.0 | 22.5 | 0.00 | 0.10 | 0.10 | 53 | 1019.1 |
| 20260505224030 | 15 | 287 | 12.9 | 22.5 | 0.00 | 0.10 | 0.10 | 53 | 1019.3 |
| 20260505223534 | 15 | 282 | 11.3 | 22.5 | 0.00 | 0.10 | 0.10 | 54 | 1019.2 |
| 20260505223054 | 15 | 292 | 12.9 | 25.7 | 0.00 | 0.10 | 0.10 | 57 | 1019.3 |
| 20260505222551 | 15 | 320 | 12.9 | 25.7 | 0.00 | 0.10 | 0.10 | 59 | 1019.4 |
| 20260505222057 | 15 | 302 | 9.7 | 24.1 | 0.00 | 0.10 | 0.10 | 61 | 1019.7 |
| 20260505221549 | 15 | 305 | 14.5 | 30.6 | 0.00 | 0.10 | 0.10 | 62 | 1019.9 |
| 20260505221049 | 15 | 318 | 20.9 | 30.6 | 0.00 | 0.10 | 0.10 | 64 | 1019.8 |
| 20260505220557 | 15 | 328 | 16.1 | 25.7 | 0.00 | 0.10 | 0.10 | 61 | 1019.6 |
| 20260505220027 | 15 | 273 | 14.5 | 29.0 | 0.00 | 0.10 | 0.10 | 59 | 1019.7 |
| 20260505215523 | 15 | 354 | 12.9 | 32.2 | 0.00 | 0.10 | 0.10 | 62 | 1019.9 |
| 20260505215029 | 15 | 308 | 11.3 | 32.2 | 0.00 | 0.10 | 0.10 | 61 | 1019.9 |
| 20260505214554 | 15 | 260 | 14.5 | 30.6 | 0.00 | 0.10 | 0.10 | 63 | 1020.1 |
| 20260505214045 | 15 | 301 | 16.1 | 30.6 | 0.00 | 0.10 | 0.10 | 60 | 1020.3 |
| 20260505213548 | 15 | 359 | 17.7 | 30.6 | 0.00 | 0.10 | 0.10 | 61 | 1020.0 |
| 20260505213048 | 16 | 345 | 16.1 | 30.6 | 0.00 | 0.10 | 0.10 | 57 | 1019.9 |
| 20260505212535 | 16 | 300 | 9.7 | 19.3 | 0.03 | 0.10 | 0.10 | 58 | 1019.6 |
| 20260505212043 | 16 | 290 | 9.7 | 19.3 | 0.03 | 0.10 | 0.10 | 59 | 1019.3 |
| 20260505211607 | 16 | 302 | 6.4 | 22.5 | 0.03 | 0.10 | 0.10 | 59 | 1019.3 |
| 20260505211503 | 16 | 280 | 6.4 | 22.5 | 0.03 | 0.10 | 0.10 | 59 | 1019.3 |
| 20260505211009 | 16 | 345 | 8.0 | 20.9 | 0.03 | 0.10 | 0.10 | 58 | 1019.1 |
| 20260505210518 | 16 | 313 | 9.7 | 20.9 | 0.03 | 0.10 | 0.10 | 56 | 1019.0 |
| 20260505210053 | 17 | 70 | 3.2 | 9.7 | 0.03 | 0.10 | 0.10 | 61 | 1019.1 |
| 20260505205557 | 17 | 33 | 3.2 | 9.7 | 0.03 | 0.10 | 0.10 | 59 | 1019.2 |
| 20260505205507 | 17 | 36 | 3.2 | 9.7 | 0.03 | 0.10 | 0.10 | 60 | 1019.2 |
| 20260505205006 | 16 | 25 | 1.6 | 9.7 | 0.03 | 0.10 | 0.10 | 65 | 1019.2 |
| 20260505204528 | 16 | 60 | 0.0 | 4.8 | 0.03 | 0.10 | 0.10 | 59 | 1019.3 |
| 20260505204022 | 15 | 156 | 0.0 | 8.0 | 0.03 | 0.10 | 0.10 | 63 | 1019.5 |
| 20260505203529 | 15 | 154 | 1.6 | 8.0 | 0.03 | 0.10 | 0.10 | 68 | 1019.9 |
| 20260505203042 | 15 | 162 | 1.6 | 12.9 | 0.03 | 0.10 | 0.10 | 66 | 1020.5 |
| 20260505202545 | 16 | 248 | 3.2 | 12.9 | 0.00 | 0.08 | 0.08 | 60 | 1020.8 |
| 20260505202054 | 16 | 217 | 3.2 | 11.3 | 0.00 | 0.08 | 0.08 | 57 | 1020.6 |
| 20260505201542 | 16 | 228 | 1.6 | 12.9 | 0.00 | 0.08 | 0.08 | 54 | 1020.4 |
| 20260505201032 | 16 | 293 | 6.4 | 12.9 | 0.00 | 0.08 | 0.08 | 55 | 1020.2 |
| 20260505200540 | 16 | 295 | 0.0 | 9.7 | 0.00 | 0.08 | 0.08 | 55 | 1019.9 |
| 20260505200057 | 16 | 62 | 3.2 | 12.9 | 0.00 | 0.08 | 0.08 | 54 | 1020.0 |
| 20260505195506 | 16 | 304 | 1.6 | 12.9 | 0.00 | 0.08 | 0.08 | 58 | 1020.1 |
| 20260505195006 | 16 | 298 | 6.4 | 12.9 | 0.00 | 0.08 | 0.08 | 57 | 1020.2 |
| 20260505194524 | 16 | 292 | 4.8 | 9.7 | 0.00 | 0.08 | 0.08 | 58 | 1020.0 |
| 20260505194031 | 16 | 25 | 1.6 | 11.3 | 0.00 | 0.08 | 0.08 | 60 | 1020.0 |
| 20260505193538 | 15 | 69 | 4.8 | 14.5 | 0.00 | 0.08 | 0.08 | 62 | 1020.1 |
| 20260505193051 | 16 | 4 | 8.0 | 14.5 | 0.00 | 0.08 | 0.08 | 60 | 1020.1 |
| 20260505192558 | 15 | 314 | 4.8 | 19.3 | 0.00 | 0.08 | 0.08 | 61 | 1020.2 |
| 20260505192502 | 15 | 264 | 4.8 | 19.3 | 0.00 | 0.08 | 0.08 | 62 | 1020.2 |
| 20260505192004 | 15 | 276 | 8.0 | 19.3 | 0.00 | 0.08 | 0.08 | 66 | 1020.4 |
| 20260505191518 | 15 | 196 | 9.7 | 20.9 | 0.00 | 0.08 | 0.08 | 65 | 1020.6 |
| 20260505191027 | 15 | 354 | 11.3 | 20.9 | 0.00 | 0.08 | 0.08 | 69 | 1020.5 |
| 20260505190527 | 15 | 328 | 9.7 | 19.3 | 0.00 | 0.08 | 0.08 | 68 | 1020.5 |
| 20260505190048 | 14 | 308 | 11.3 | 17.7 | 0.00 | 0.08 | 0.08 | 71 | 1020.6 |
| 20260505185546 | 13 | 326 | 6.4 | 22.5 | 0.00 | 0.08 | 0.08 | 76 | 1020.5 |
| 20260505185100 | 14 | 280 | 14.5 | 25.7 | 0.00 | 0.08 | 0.08 | 75 | 1020.8 |
| 20260505185002 | 14 | 289 | 11.3 | 25.7 | 0.00 | 0.08 | 0.08 | 74 | 1020.6 |
| 20260505184518 | 14 | 311 | 11.3 | 25.7 | 0.00 | 0.08 | 0.08 | 69 | 1020.7 |
| 20260505184025 | 15 | 288 | 12.9 | 25.7 | 0.00 | 0.08 | 0.08 | 65 | 1020.7 |
| 20260505183522 | 15 | 284 | 8.0 | 12.9 | 0.00 | 0.08 | 0.08 | 59 | 1020.4 |
| 20260505183048 | 16 | 293 | 4.8 | 11.3 | 0.00 | 0.08 | 0.08 | 60 | 1020.4 |
| 20260505182544 | 16 | 4 | 3.2 | 12.9 | 0.00 | 0.08 | 0.08 | 62 | 1020.3 |
| 20260505182056 | 15 | 315 | 3.2 | 12.9 | 0.00 | 0.08 | 0.08 | 60 | 1020.4 |
| 20260505181512 | 15 | 285 | 3.2 | 8.0 | 0.00 | 0.08 | 0.08 | 61 | 1020.3 |
| 20260505181023 | 15 | 324 | 1.6 | 6.4 | 0.00 | 0.08 | 0.08 | 60 | 1020.4 |
| 20260505180524 | 15 | 291 | 0.0 | 6.4 | 0.00 | 0.08 | 0.08 | 64 | 1020.5 |
| 20260505180043 | 15 | 36 | 0.0 | 6.4 | 0.00 | 0.08 | 0.08 | 68 | 1020.6 |
| 20260505175548 | 15 | 305 | 0.0 | 6.4 | 0.00 | 0.08 | 0.08 | 66 | 1020.6 |
| 20260505175057 | 14 | 276 | 3.2 | 6.4 | 0.00 | 0.08 | 0.08 | 64 | 1020.7 |
| 20260505174527 | 13 | 91 | 1.6 | 6.4 | 0.03 | 0.08 | 0.08 | 68 | 1020.7 |
| 20260505174023 | 13 | 354 | 0.0 | 6.4 | 0.03 | 0.08 | 0.08 | 69 | 1020.6 |
| 20260505173532 | 13 | 64 | 1.6 | 6.4 | 0.03 | 0.08 | 0.08 | 71 | 1020.8 |
| 20260505173043 | 13 | 37 | 1.6 | 6.4 | 0.03 | 0.08 | 0.08 | 72 | 1020.8 |
| 20260505172547 | 12 | 37 | 1.6 | 8.0 | 0.03 | 0.08 | 0.08 | 74 | 1020.8 |
| 20260505172055 | 12 | 60 | 1.6 | 9.7 | 0.03 | 0.08 | 0.08 | 75 | 1020.8 |
| 20260505171541 | 12 | 72 | 1.6 | 11.3 | 0.05 | 0.08 | 0.08 | 76 | 1021.0 |
| 20260505171044 | 12 | 77 | 4.8 | 11.3 | 0.05 | 0.08 | 0.08 | 75 | 1021.0 |
| 20260505170604 | 12 | 28 | 1.6 | 9.7 | 0.08 | 0.08 | 0.08 | 80 | 1021.1 |
| 20260505170013 | 12 | 112 | 0.0 | 9.7 | 0.08 | 0.08 | 0.08 | 85 | 1021.1 |
| 20260505165522 | 11 | 71 | 0.0 | 4.8 | 0.08 | 0.08 | 0.08 | 86 | 1021.0 |
| 20260505165025 | 11 | 37 | 0.0 | 4.8 | 0.05 | 0.05 | 0.08 | 85 | 1021.0 |
| 20260505164538 | 11 | 35 | 1.6 | 6.4 | 0.05 | 0.05 | 0.05 | 84 | 1021.1 |
| 20260505164050 | 11 | 70 | 1.6 | 6.4 | 0.05 | 0.05 | 0.05 | 83 | 1021.2 |
| 20260505163557 | 11 | 79 | 3.2 | 8.0 | 0.05 | 0.05 | 0.05 | 82 | 1021.2 |
| 20260505163009 | 11 | 18 | 1.6 | 12.9 | 0.05 | 0.05 | 0.05 | 83 | 1021.1 |
| 20260505162514 | 11 | 359 | 4.8 | 12.9 | 0.05 | 0.05 | 0.05 | 82 | 1021.0 |
| 20260505162016 | 11 | 11 | 1.6 | 12.9 | 0.05 | 0.05 | 0.05 | 81 | 1021.0 |
| 20260505161536 | 11 | 4 | 3.2 | 16.1 | 0.03 | 0.03 | 0.03 | 80 | 1021.1 |
| 20260505161034 | 11 | 359 | 1.6 | 16.1 | 0.03 | 0.03 | 0.03 | 79 | 1021.1 |
| 20260505160545 | 11 | 310 | 4.8 | 9.7 | 0.00 | 0.00 | 0.00 | 77 | 1021.2 |
| 20260505153105 | 14 | 322 | 4.8 | 12.9 | 0.00 | 0.00 | 0.00 | 59 | 1020.8 |
| 20260505152506 | 14 | 324 | 4.8 | 12.9 | 0.00 | 0.00 | 0.00 | 54 | 1020.8 |
| 20260505152015 | 14 | 330 | 3.2 | 11.3 | 0.00 | 0.00 | 0.00 | 53 | 1020.7 |
| 20260505151523 | 14 | 290 | 3.2 | 9.7 | 0.00 | 0.00 | 0.00 | 56 | 1020.9 |